1546322400.5,26139,0.0,0.0,-13.69,-14.29,-14.29,0,*62
1546322401.71,26140,0.0,0.0,-13.69,-14.29,-14.29,0,*6C
1546322402.95,26141,0.0,0.0,-13.71,-14.29,-14.29,0,*64
1546322404.16,26142,0.0,0.0,-13.69,-14.29,-14.29,0,*6E
1546322405.4,26143,0.0,0.0,-13.71,-14.33,-14.29,0,*6D
1546322406.61,26144,0.0,0.0,-13.69,-14.33,-14.33,0,*68
1546322407.83,26145,0.0,0.0,-13.69,-14.29,-14.23,0,*63
1546322409.04,26146,0.0,0.0,-13.69,-14.33,-14.33,0,*6A
1546322410.27,26147,0.0,0.0,-13.71,-14.29,-14.23,0,*68
1546322411.51,26148,0.0,0.0,-13.71,-14.33,-14.33,0,*6D
1546322412.72,26149,0.0,0.0,-13.69,-14.29,-14.29,0,*65
1546322413.94,26150,0.0,0.0,-13.69,-14.29,-14.29,0,*6D
1546322415.16,26151,0.0,0.0,-13.69,-14.23,-14.29,0,*66
1546322416.39,26152,0.0,0.0,-13.69,-14.29,-14.43,0,*63
1546322417.6,26153,0.0,0.0,-13.69,-14.29,-14.29,0,*6E
1546322418.81,26154,0.0,0.0,-13.69,-14.29,-14.29,0,*69
1546322420.03,26155,0.0,0.0,-13.69,-14.37,-14.29,0,*67
1546322421.24,26156,0.0,0.0,-13.69,-14.29,-14.29,0,*6B
1546322422.46,26157,0.0,0.0,-13.69,-14.29,-14.37,0,*65
1546322423.67,26158,0.0,0.0,-13.69,-14.23,-14.29,0,*6F
1546322424.89,26159,0.0,0.0,-13.69,-14.29,-14.23,0,*6E
1546322426.1,26160,0.0,0.0,-13.69,-14.29,-14.29,0,*6E
1546322427.34,26161,0.0,0.0,-13.71,-14.33,-14.33,0,*66
1546322428.55,26162,0.0,0.0,-13.69,-14.29,-14.29,0,*6C
1546322429.77,26163,0.0,0.0,-13.69,-14.37,-14.29,0,*62
1546322430.98,26164,0.0,0.0,-13.69,-14.29,-14.29,0,*6A
1546322432.19,26165,0.0,0.0,-13.69,-14.29,-14.29,0,*6B
1546322433.4,26166,0.0,0.0,-13.69,-14.29,-14.29,0,*68
1546322434.64,26167,0.0,0.0,-13.67,-14.29,-14.29,0,*67
1546322435.88,26168,0.0,0.0,-13.67,-14.29,-14.29,0,*68
1546322437.12,26169,0.0,0.0,-13.67,-14.29,-14.37,0,*66
1546322438.36,26170,0.0,0.0,-13.67,-14.29,-14.29,0,*61
1546322439.6,26171,0.0,0.0,-13.67,-14.37,-14.37,0,*60
1546322440.82,26172,0.0,0.0,-13.69,-14.37,-14.29,0,*62
1546322442.03,26173,0.0,0.0,-13.69,-14.29,-14.29,0,*6C
1546322443.27,26174,0.0,0.0,-13.67,-14.29,-14.29,0,*65
1546322444.51,26175,0.0,0.0,-13.67,-14.29,-14.29,0,*64
1546322445.73,26176,0.0,0.0,-13.65,-14.19,-14.23,0,*6C
1546322446.98,26177,0.0,0.0,-13.67,-14.37,-14.15,0,*66
1546322448.19,26178,0.0,0.0,-13.69,-14.37,-14.29,0,*68
1546322449.43,26179,0.0,0.0,-13.67,-14.37,-14.29,0,*67
1546322450.68,26180,0.0,0.0,-13.67,-14.37,-14.29,0,*61
1546322451.89,26181,0.0,0.0,-13.69,-14.37,-14.29,0,*6E
1546322453.13,26182,0.0,0.0,-13.67,-14.29,-14.29,0,*6C
1546322454.38,26183,0.0,0.0,-13.67,-14.23,-14.37,0,*68
1546322455.62,26184,0.0,0.0,-13.67,-14.29,-14.29,0,*6A
1546322456.86,26185,0.0,0.0,-13.67,-14.29,-14.29,0,*6B
1546322458.1,26186,0.0,0.0,-13.67,-14.29,-14.23,0,*62
1546322459.31,26187,0.0,0.0,-13.69,-14.37,-14.29,0,*68
1546322460.56,26188,0.0,0.0,-13.67,-14.37,-14.29,0,*69
1546322461.8,26189,0.0,0.0,-13.67,-14.29,-14.23,0,*6D
1546322463.04,26190,0.0,0.0,-13.67,-14.29,-14.29,0,*6F
1546322464.28,26191,0.0,0.0,-13.67,-14.29,-14.29,0,*6E
1546322465.51,26192,0.0,0.0,-13.67,-14.29,-14.29,0,*6D
1546322466.73,26193,0.0,0.0,-13.65,-14.29,-14.23,0,*64
1546322467.97,26194,0.0,0.0,-13.67,-14.29,-14.29,0,*6B
1546322469.21,26195,0.0,0.0,-13.67,-14.29,-14.29,0,*6A
1546322470.45,26196,0.0,0.0,-13.67,-14.29,-14.37,0,*66
1546322471.69,26197,0.0,0.0,-13.67,-14.29,-14.29,0,*68
1546322472.93,26198,0.0,0.0,-13.67,-14.37,-14.29,0,*68
1546322474.17,26199,0.0,0.0,-13.67,-14.29,-14.29,0,*66
1546322475.41,26200,0.0,0.0,-13.67,-14.29,-14.29,0,*65
1546322476.65,26201,0.0,0.0,-13.67,-14.29,-14.29,0,*64
1546322477.89,26202,0.0,0.0,-13.67,-14.29,-14.29,0,*67
1546322479.14,26203,0.0,0.0,-13.67,-14.23,-14.29,0,*6C
1546322480.38,26204,0.0,0.0,-13.67,-14.29,-14.29,0,*61
1546322481.62,26205,0.0,0.0,-13.67,-14.29,-14.29,0,*60
1546322482.86,26206,0.0,0.0,-13.67,-14.29,-14.29,0,*63
1546322484.1,26207,0.0,0.0,-13.67,-14.29,-14.29,0,*62
1546322485.34,26208,0.0,0.0,-13.67,-14.29,-14.23,0,*67
1546322486.58,26209,0.0,0.0,-13.67,-14.37,-14.29,0,*63
1546322487.83,26210,0.0,0.0,-13.67,-14.23,-14.23,0,*64
1546322489.07,26211,0.0,0.0,-13.67,-14.23,-14.23,0,*65
1546322490.31,26212,0.0,0.0,-13.67,-14.37,-14.29,0,*69
1546322491.55,26213,0.0,0.0,-13.67,-14.37,-14.29,0,*68
1546322492.8,26214,0.0,0.0,-13.67,-14.37,-14.23,0,*65
1546322494.04,26215,0.0,0.0,-13.67,-14.37,-14.29,0,*6E
1546322495.29,26216,0.0,0.0,-13.67,-14.23,-14.29,0,*68
1546322496.53,26217,0.0,0.0,-13.67,-14.37,-14.29,0,*6C
1546322497.77,26218,0.0,0.0,-13.67,-14.29,-14.23,0,*66
1546322498.99,26219,0.0,0.0,-13.65,-14.23,-14.19,0,*66
1546322500.23,26220,0.0,0.0,-13.67,-14.37,-14.37,0,*67
1546322501.47,26221,0.0,0.0,-13.67,-14.29,-14.29,0,*66
1546322502.7,26222,0.0,0.0,-13.65,-14.23,-14.23,0,*67
1546322503.93,26223,0.0,0.0,-13.67,-14.29,-14.29,0,*64
1546322505.17,26224,0.0,0.0,-13.67,-14.29,-14.29,0,*63
1546322506.41,26225,0.0,0.0,-13.67,-14.29,-14.29,0,*62
1546322507.66,26226,0.0,0.0,-13.67,-14.23,-14.37,0,*64
1546322508.9,26227,0.0,0.0,-13.67,-14.29,-14.23,0,*6A
1546322510.14,26228,0.0,0.0,-13.67,-14.29,-14.29,0,*6F
1546322511.38,26229,0.0,0.0,-13.67,-14.23,-14.29,0,*64
1546322512.61,26230,0.0,0.0,-13.65,-14.23,-14.23,0,*64
1546322513.83,26231,0.0,0.0,-13.65,-14.19,-14.33,0,*6D
1546322515.07,26232,0.0,0.0,-13.67,-14.29,-14.23,0,*6E
1546322516.29,26233,0.0,0.0,-13.65,-14.23,-14.23,0,*67
1546322517.52,26234,0.0,0.0,-13.65,-14.23,-14.23,0,*60
1546322518.74,26235,0.0,0.0,-13.65,-14.23,-14.19,0,*68
1546322519.98,26236,0.0,0.0,-13.67,-14.29,-14.29,0,*60
1546322521.22,26237,0.0,0.0,-13.67,-14.37,-14.29,0,*6E
1546322522.46,26238,0.0,0.0,-13.67,-14.29,-14.37,0,*61
1546322523.7,26239,0.0,0.0,-13.67,-14.29,-14.29,0,*6F
1546322524.94,26240,0.0,0.0,-13.67,-14.37,-14.29,0,*6E
1546322526.18,26241,0.0,0.0,-13.67,-14.37,-14.29,0,*6F
1546322527.4,26242,0.0,0.0,-13.65,-14.23,-14.33,0,*60
1546322528.64,26243,0.0,0.0,-13.67,-14.29,-14.29,0,*62
1546322529.87,26244,0.0,0.0,-13.65,-14.23,-14.23,0,*67
1546322531.11,26245,0.0,0.0,-13.67,-14.29,-14.29,0,*64
1546322532.35,26246,0.0,0.0,-13.67,-14.29,-14.29,0,*67
1546322533.56,26247,0.0,0.0,-13.65,-14.29,-14.37,0,*6B
1546322534.8,26248,0.0,0.0,-13.67,-14.29,-14.33,0,*62
1546322536.04,26249,0.0,0.0,-13.67,-14.37,-14.29,0,*67
1546322537.27,26250,0.0,0.0,-13.65,-14.23,-14.23,0,*62
1546322538.49,26251,0.0,0.0,-13.65,-14.23,-14.23,0,*63
1546322539.71,26252,0.0,0.0,-13.65,-14.33,-14.23,0,*61
1546322540.92,26253,0.0,0.0,-13.65,-14.33,-14.19,0,*69
1546322542.16,26254,0.0,0.0,-13.67,-14.29,-14.29,0,*64
1546322543.38,26255,0.0,0.0,-13.65,-14.19,-14.33,0,*6F
1546322544.62,26256,0.0,0.0,-13.67,-14.29,-14.29,0,*66
1546322545.86,26257,0.0,0.0,-13.67,-14.29,-14.29,0,*67
1546322547.08,26258,0.0,0.0,-13.65,-14.33,-14.23,0,*6B
1546322548.29,26259,0.0,0.0,-13.65,-14.33,-14.19,0,*63
1546322549.52,26260,0.0,0.0,-13.65,-14.23,-14.23,0,*61
1546322550.73,26261,0.0,0.0,-13.65,-14.33,-14.23,0,*61
1546322551.95,26262,0.0,0.0,-13.65,-14.33,-14.23,0,*62
1546322553.19,26263,0.0,0.0,-13.67,-14.29,-14.37,0,*6F
1546322554.41,26264,0.0,0.0,-13.65,-14.23,-14.23,0,*65
1546322555.64,26265,0.0,0.0,-13.65,-14.23,-14.23,0,*64
1546322556.86,26266,0.0,0.0,-13.65,-14.23,-14.23,0,*67
1546322558.08,26267,0.0,0.0,-13.65,-14.33,-14.23,0,*67
1546322559.32,26268,0.0,0.0,-13.67,-14.29,-14.29,0,*6B
1546322560.56,26269,0.0,0.0,-13.67,-14.29,-14.29,0,*6A
1546322561.78,26270,0.0,0.0,-13.65,-14.33,-14.23,0,*61
1546322563.0,26271,0.0,0.0,-13.65,-14.23,-14.23,0,*61
1546322564.22,26272,0.0,0.0,-13.65,-14.23,-14.23,0,*62
1546322565.46,26273,0.0,0.0,-13.67,-14.29,-14.23,0,*6B
1546322566.68,26274,0.0,0.0,-13.65,-14.23,-14.19,0,*6D
1546322567.9,26275,0.0,0.0,-13.65,-14.29,-14.29,0,*65
1546322569.12,26276,0.0,0.0,-13.65,-14.29,-14.29,0,*66
1546322570.33,26277,0.0,0.0,-13.65,-14.33,-14.19,0,*6F
1546322571.57,26278,0.0,0.0,-13.67,-14.29,-14.29,0,*6A
1546322572.82,26279,0.0,0.0,-13.67,-14.23,-14.37,0,*6E
1546322574.04,26280,0.0,0.0,-13.65,-14.23,-14.23,0,*6F
1546322575.26,26281,0.0,0.0,-13.65,-14.23,-14.19,0,*67
1546322576.48,26282,0.0,0.0,-13.65,-14.23,-14.23,0,*6D
1546322577.71,26283,0.0,0.0,-13.65,-14.23,-14.23,0,*6C
1546322578.93,26284,0.0,0.0,-13.65,-14.19,-14.23,0,*62
1546322580.15,26285,0.0,0.0,-13.65,-14.23,-14.23,0,*6A
1546322581.37,26286,0.0,0.0,-13.65,-14.33,-14.23,0,*68
1546322582.6,26287,0.0,0.0,-13.65,-14.23,-14.23,0,*68
1546322583.84,26288,0.0,0.0,-13.67,-14.29,-14.23,0,*6F
1546322585.07,26289,0.0,0.0,-13.67,-14.29,-14.37,0,*6B
1546322586.3,26290,0.0,0.0,-13.65,-14.23,-14.23,0,*6E
1546322587.52,26291,0.0,0.0,-13.65,-14.23,-14.23,0,*6F
1546322588.75,26292,0.0,0.0,-13.65,-14.23,-14.23,0,*6C
1546322589.96,26293,0.0,0.0,-13.65,-14.33,-14.23,0,*6C
1546322591.21,26294,0.0,0.0,-13.67,-14.37,-14.29,0,*67
1546322592.43,26295,0.0,0.0,-13.65,-14.23,-14.23,0,*6B
1546322593.65,26296,0.0,0.0,-13.65,-14.19,-14.23,0,*61
1546322594.87,26297,0.0,0.0,-13.65,-14.23,-14.23,0,*69
1546322596.09,26298,0.0,0.0,-13.65,-14.33,-14.23,0,*67
1546322597.32,26299,0.0,0.0,-13.65,-14.23,-14.23,0,*67
1546322598.54,26300,0.0,0.0,-13.65,-14.19,-14.19,0,*66
1546322599.78,26301,0.0,0.0,-13.67,-14.29,-14.29,0,*65
1546322601.02,26302,0.0,0.0,-13.67,-14.29,-14.29,0,*66
1546322602.24,26303,0.0,0.0,-13.65,-14.23,-14.19,0,*6C
1546322603.46,26304,0.0,0.0,-13.65,-14.19,-14.23,0,*6B
1546322604.68,26305,0.0,0.0,-13.65,-14.23,-14.19,0,*6A
1546322605.9,26306,0.0,0.0,-13.65,-14.29,-14.29,0,*60
1546322607.12,26307,0.0,0.0,-13.65,-14.23,-14.23,0,*61
1546322608.34,26308,0.0,0.0,-13.65,-14.33,-14.23,0,*6F
1546322609.56,26309,0.0,0.0,-13.65,-14.23,-14.23,0,*6F
1546322610.8,26310,0.0,0.0,-13.67,-14.29,-14.23,0,*6F
1546322612.03,26311,0.0,0.0,-13.65,-14.23,-14.23,0,*66
1546322613.24,26312,0.0,0.0,-13.65,-14.33,-14.23,0,*64
1546322614.47,26313,0.0,0.0,-13.63,-14.23,-14.23,0,*62
1546322615.69,26314,0.0,0.0,-13.63,-14.23,-14.23,0,*65
1546322616.92,26315,0.0,0.0,-13.65,-14.23,-14.23,0,*62
1546322618.14,26316,0.0,0.0,-13.65,-14.23,-14.23,0,*61
1546322619.36,26317,0.0,0.0,-13.65,-14.33,-14.19,0,*68
1546322620.58,26318,0.0,0.0,-13.65,-14.23,-14.33,0,*6E
1546322621.8,26319,0.0,0.0,-13.65,-14.23,-14.23,0,*6E
1546322623.02,26320,0.0,0.0,-13.65,-14.23,-14.23,0,*64
1546322624.25,26321,0.0,0.0,-13.65,-14.23,-14.23,0,*65
1546322625.47,26322,0.0,0.0,-13.65,-14.23,-14.19,0,*6F
1546322626.69,26323,0.0,0.0,-13.65,-14.23,-14.23,0,*67
1546322627.91,26324,0.0,0.0,-13.65,-14.23,-14.23,0,*60
1546322629.14,26325,0.0,0.0,-13.65,-14.23,-14.19,0,*68
1546322630.36,26326,0.0,0.0,-13.65,-14.19,-14.23,0,*6B
1546322631.58,26327,0.0,0.0,-13.65,-14.23,-14.19,0,*6A
1546322632.8,26328,0.0,0.0,-13.65,-14.23,-14.33,0,*6D
1546322634.03,26329,0.0,0.0,-13.63,-14.23,-14.23,0,*6B
1546322635.25,26330,0.0,0.0,-13.65,-14.23,-14.19,0,*6C
1546322636.47,26331,0.0,0.0,-13.65,-14.23,-14.19,0,*6D
1546322637.71,26332,0.0,0.0,-13.67,-14.29,-14.29,0,*65
1546322638.93,26333,0.0,0.0,-13.65,-14.23,-14.23,0,*66
1546322640.15,26334,0.0,0.0,-13.65,-14.33,-14.23,0,*60
1546322641.36,26335,0.0,0.0,-13.65,-14.33,-14.23,0,*61
1546322642.59,26336,0.0,0.0,-13.65,-14.23,-14.23,0,*63
1546322643.81,26337,0.0,0.0,-13.65,-14.19,-14.23,0,*6B
1546322645.03,26338,0.0,0.0,-13.65,-14.33,-14.23,0,*6C
1546322646.25,26339,0.0,0.0,-13.65,-14.23,-14.19,0,*65
1546322647.48,26340,0.0,0.0,-13.63,-14.23,-14.23,0,*64
1546322648.7,26341,0.0,0.0,-13.65,-14.23,-14.23,0,*63
1546322649.92,26342,0.0,0.0,-13.65,-14.23,-14.23,0,*60
1546322651.14,26343,0.0,0.0,-13.65,-14.23,-14.23,0,*61
1546322652.37,26344,0.0,0.0,-13.63,-14.23,-14.23,0,*60
1546322653.59,26345,0.0,0.0,-13.63,-14.33,-14.23,0,*60
1546322654.81,26346,0.0,0.0,-13.63,-14.23,-14.19,0,*6B
1546322656.06,26347,0.0,0.0,-13.61,-14.19,-14.19,0,*61
1546322657.28,26348,0.0,0.0,-13.63,-14.23,-14.23,0,*6C
1546322658.5,26349,0.0,0.0,-13.63,-14.33,-14.23,0,*6C
1546322659.72,26350,0.0,0.0,-13.63,-14.19,-14.23,0,*6C
1546322660.94,26351,0.0,0.0,-13.65,-14.19,-14.19,0,*62
1546322662.17,26352,0.0,0.0,-13.65,-14.23,-14.19,0,*68
1546322663.39,26353,0.0,0.0,-13.65,-14.23,-14.23,0,*60
1546322664.61,26354,0.0,0.0,-13.65,-14.33,-14.23,0,*66
1546322665.83,26355,0.0,0.0,-13.63,-14.23,-14.23,0,*60
1546322667.05,26356,0.0,0.0,-13.63,-14.23,-14.19,0,*6A
1546322668.28,26357,0.0,0.0,-13.65,-14.23,-14.23,0,*64
1546322669.5,26358,0.0,0.0,-13.63,-14.23,-14.23,0,*6D
1546322670.73,26359,0.0,0.0,-13.63,-14.23,-14.23,0,*6C
1546322671.94,26360,0.0,0.0,-13.63,-14.33,-14.19,0,*6E
1546322673.16,26361,0.0,0.0,-13.63,-14.33,-14.23,0,*66
1546322674.38,26362,0.0,0.0,-13.63,-14.23,-14.23,0,*64
1546322675.61,26363,0.0,0.0,-13.63,-14.23,-14.19,0,*6C
1546322676.83,26364,0.0,0.0,-13.63,-14.23,-14.19,0,*6B
1546322678.05,26365,0.0,0.0,-13.63,-14.23,-14.23,0,*63
1546322679.28,26366,0.0,0.0,-13.63,-14.23,-14.23,0,*60
1546322680.5,26367,0.0,0.0,-13.63,-14.23,-14.19,0,*68
1546322681.73,26368,0.0,0.0,-13.63,-14.23,-14.23,0,*6E
1546322682.95,26369,0.0,0.0,-13.63,-14.23,-14.23,0,*6F
1546322684.17,26370,0.0,0.0,-13.63,-14.23,-14.19,0,*6E
1546322685.4,26371,0.0,0.0,-13.63,-14.23,-14.23,0,*66
1546322686.62,26372,0.0,0.0,-13.63,-14.23,-14.23,0,*65
1546322687.84,26373,0.0,0.0,-13.63,-14.33,-14.33,0,*64
1546322689.08,26374,0.0,0.0,-13.61,-14.29,-14.15,0,*6E
1546322690.31,26375,0.0,0.0,-13.63,-14.19,-14.23,0,*6B
1546322691.55,26376,0.0,0.0,-13.61,-14.29,-14.19,0,*60
1546322692.8,26377,0.0,0.0,-13.61,-14.15,-14.19,0,*6E
1546322694.02,26378,0.0,0.0,-13.63,-14.23,-14.23,0,*6F
1546322695.25,26379,0.0,0.0,-13.63,-14.23,-14.23,0,*6E
1546322696.46,26380,0.0,0.0,-13.63,-14.33,-14.23,0,*69
1546322697.69,26381,0.0,0.0,-13.63,-14.23,-14.23,0,*69
1546322698.92,26382,0.0,0.0,-13.63,-14.23,-14.23,0,*6A
1546322700.14,26383,0.0,0.0,-13.63,-14.23,-14.19,0,*62
1546322701.35,26384,0.0,0.0,-13.63,-14.33,-14.19,0,*64
1546322702.57,26385,0.0,0.0,-13.63,-14.33,-14.23,0,*6C
1546322703.81,26386,0.0,0.0,-13.61,-14.29,-14.29,0,*6C
1546322705.04,26387,0.0,0.0,-13.63,-14.23,-14.23,0,*6F
1546322706.26,26388,0.0,0.0,-13.63,-14.23,-14.19,0,*69
1546322707.48,26389,0.0,0.0,-13.63,-14.23,-14.23,0,*61
1546322708.71,26390,0.0,0.0,-13.63,-14.23,-14.19,0,*60
1546322709.93,26391,0.0,0.0,-13.63,-14.23,-14.23,0,*68
1546322711.16,26392,0.0,0.0,-13.63,-14.19,-14.23,0,*62
1546322712.38,26393,0.0,0.0,-13.63,-14.23,-14.23,0,*6A
1546322713.61,26394,0.0,0.0,-13.63,-14.23,-14.23,0,*6D
1546322714.83,26395,0.0,0.0,-13.63,-14.23,-14.19,0,*65
1546322716.05,26396,0.0,0.0,-13.63,-14.23,-14.19,0,*66
1546322717.28,26397,0.0,0.0,-13.63,-14.23,-14.23,0,*6E
1546322718.5,26398,0.0,0.0,-13.63,-14.23,-14.19,0,*68
1546322719.74,26399,0.0,0.0,-13.61,-14.19,-14.19,0,*62
1546322720.97,26400,0.0,0.0,-13.63,-14.23,-14.23,0,*67
1546322722.19,26401,0.0,0.0,-13.63,-14.19,-14.15,0,*6A
1546322723.42,26402,0.0,0.0,-13.63,-14.19,-14.33,0,*6D
1546322724.67,26403,0.0,0.0,-13.61,-14.15,-14.15,0,*66
1546322725.92,26404,0.0,0.0,-13.61,-14.15,-14.19,0,*6D
1546322727.16,26405,0.0,0.0,-13.61,-14.19,-14.19,0,*60
1546322728.39,26406,0.0,0.0,-13.63,-14.23,-14.19,0,*68
1546322729.61,26407,0.0,0.0,-13.63,-14.23,-14.23,0,*60
1546322730.83,26408,0.0,0.0,-13.63,-14.23,-14.19,0,*66
1546322732.08,26409,0.0,0.0,-13.61,-14.19,-14.19,0,*6C
1546322733.3,26410,0.0,0.0,-13.63,-14.23,-14.19,0,*6F
1546322734.52,26411,0.0,0.0,-13.63,-14.19,-14.23,0,*6E
1546322735.75,26412,0.0,0.0,-13.63,-14.23,-14.19,0,*6D
1546322736.99,26413,0.0,0.0,-13.61,-14.19,-14.19,0,*67
1546322738.24,26414,0.0,0.0,-13.61,-14.19,-14.19,0,*60
1546322739.49,26415,0.0,0.0,-13.61,-14.19,-14.19,0,*61
1546322740.71,26416,0.0,0.0,-13.63,-14.23,-14.23,0,*60
1546322741.96,26417,0.0,0.0,-13.61,-14.15,-14.15,0,*63
1546322743.21,26418,0.0,0.0,-13.61,-14.15,-14.19,0,*60
1546322744.46,26419,0.0,0.0,-13.61,-14.19,-14.19,0,*6D
1546322745.68,26420,0.0,0.0,-13.63,-14.23,-14.19,0,*6C
1546322746.92,26421,0.0,0.0,-13.61,-14.29,-14.23,0,*6C
1546322748.17,26422,0.0,0.0,-13.61,-14.19,-14.19,0,*65
1546322749.42,26423,0.0,0.0,-13.61,-14.19,-14.15,0,*68
1546322750.67,26424,0.0,0.0,-13.61,-14.15,-14.15,0,*63
1546322751.92,26425,0.0,0.0,-13.61,-14.19,-14.19,0,*62
1546322753.16,26426,0.0,0.0,-13.61,-14.19,-14.19,0,*61
1546322754.41,26427,0.0,0.0,-13.61,-14.19,-14.19,0,*60
1546322755.65,26428,0.0,0.0,-13.61,-14.29,-14.19,0,*6C
1546322756.9,26429,0.0,0.0,-13.61,-14.19,-14.19,0,*6E
1546322758.12,26430,0.0,0.0,-13.63,-14.23,-14.23,0,*64
1546322759.37,26431,0.0,0.0,-13.61,-14.19,-14.19,0,*67
1546322760.62,26432,0.0,0.0,-13.61,-14.15,-14.19,0,*68
1546322761.87,26433,0.0,0.0,-13.61,-14.15,-14.19,0,*69
1546322763.09,26434,0.0,0.0,-13.63,-14.19,-14.15,0,*6C
1546322764.34,26435,0.0,0.0,-13.61,-14.19,-14.19,0,*63
1546322765.58,26436,0.0,0.0,-13.61,-14.19,-14.19,0,*60
1546322766.83,26437,0.0,0.0,-13.61,-14.19,-14.29,0,*62
1546322768.08,26438,0.0,0.0,-13.61,-14.19,-14.19,0,*6E
1546322769.3,26439,0.0,0.0,-13.63,-14.19,-14.19,0,*6D
1546322770.55,26440,0.0,0.0,-13.61,-14.19,-14.15,0,*6D
1546322771.79,26441,0.0,0.0,-13.61,-14.19,-14.19,0,*60
1546322773.04,26442,0.0,0.0,-13.61,-14.19,-14.19,0,*63
1546322774.27,26443,0.0,0.0,-13.63,-14.19,-14.23,0,*69
1546322775.51,26444,0.0,0.0,-13.61,-14.19,-14.19,0,*65
1546322776.74,26445,0.0,0.0,-13.63,-14.23,-14.23,0,*66
1546322777.96,26446,0.0,0.0,-13.63,-14.23,-14.23,0,*65
1546322779.21,26447,0.0,0.0,-13.61,-14.19,-14.29,0,*65
1546322780.46,26448,0.0,0.0,-13.61,-14.19,-14.19,0,*69
1546322781.7,26449,0.0,0.0,-13.61,-14.19,-14.19,0,*68
1546322782.95,26450,0.0,0.0,-13.61,-14.19,-14.29,0,*63
1546322784.2,26451,0.0,0.0,-13.61,-14.19,-14.15,0,*6D
1546322785.45,26452,0.0,0.0,-13.61,-14.19,-14.29,0,*61
1546322786.69,26453,0.0,0.0,-13.61,-14.19,-14.19,0,*63
1546322787.94,26454,0.0,0.0,-13.61,-14.15,-14.19,0,*68
1546322789.19,26455,0.0,0.0,-13.61,-14.19,-14.19,0,*65
1546322790.44,26456,0.0,0.0,-13.61,-14.19,-14.19,0,*66
1546322791.68,26457,0.0,0.0,-13.61,-14.19,-14.19,0,*67
1546322792.93,26458,0.0,0.0,-13.61,-14.19,-14.15,0,*64
1546322794.16,26459,0.0,0.0,-13.59,-14.19,-14.15,0,*6E
1546322795.38,26460,0.0,0.0,-13.59,-14.19,-14.15,0,*64
1546322796.61,26461,0.0,0.0,-13.63,-14.23,-14.23,0,*60
1546322797.85,26462,0.0,0.0,-13.61,-14.19,-14.19,0,*61
1546322799.07,26463,0.0,0.0,-13.59,-14.19,-14.19,0,*6B
1546322800.32,26464,0.0,0.0,-13.61,-14.19,-14.15,0,*6B
1546322801.55,26465,0.0,0.0,-13.63,-14.19,-14.19,0,*64
1546322802.77,26466,0.0,0.0,-13.63,-14.19,-14.19,0,*67
1546322804.02,26467,0.0,0.0,-13.61,-14.19,-14.15,0,*68
1546322805.26,26468,0.0,0.0,-13.61,-14.19,-14.19,0,*6B
1546322806.51,26469,0.0,0.0,-13.61,-14.19,-14.15,0,*66
1546322807.77,26470,0.0,0.0,-13.61,-14.15,-14.15,0,*62
1546322809.01,26471,0.0,0.0,-13.61,-14.19,-14.15,0,*6F
1546322810.26,26472,0.0,0.0,-13.61,-14.19,-14.19,0,*60
1546322811.51,26473,0.0,0.0,-13.61,-14.19,-14.19,0,*61
1546322812.75,26474,0.0,0.0,-13.61,-14.19,-14.19,0,*66
1546322813.97,26475,0.0,0.0,-13.59,-14.29,-14.15,0,*63
1546322815.2,26476,0.0,0.0,-13.59,-14.19,-14.19,0,*6F
1546322816.42,26477,0.0,0.0,-13.59,-14.19,-14.15,0,*62
1546322817.64,26478,0.0,0.0,-13.59,-14.19,-14.19,0,*61
1546322818.87,26479,0.0,0.0,-13.59,-14.19,-14.15,0,*6C
1546322820.12,26480,0.0,0.0,-13.61,-14.19,-14.15,0,*61
1546322821.37,26481,0.0,0.0,-13.61,-14.19,-14.19,0,*6C
1546322822.59,26482,0.0,0.0,-13.63,-14.19,-14.19,0,*6D
1546322823.84,26483,0.0,0.0,-13.61,-14.19,-14.29,0,*6D
1546322825.08,26484,0.0,0.0,-13.61,-14.15,-14.19,0,*65
1546322826.31,26485,0.0,0.0,-13.63,-14.23,-14.33,0,*6B
1546322827.55,26486,0.0,0.0,-13.61,-14.19,-14.19,0,*6B
1546322828.8,26487,0.0,0.0,-13.61,-14.19,-14.19,0,*6A
1546322830.02,26488,0.0,0.0,-13.59,-14.19,-14.19,0,*6E
1546322831.25,26489,0.0,0.0,-13.59,-14.19,-14.15,0,*63
1546322832.47,26490,0.0,0.0,-13.59,-14.29,-14.15,0,*68
1546322833.69,26491,0.0,0.0,-13.59,-14.19,-14.19,0,*66
1546322834.92,26492,0.0,0.0,-13.59,-14.19,-14.15,0,*69
1546322836.15,26493,0.0,0.0,-13.59,-14.15,-14.15,0,*64
1546322837.4,26494,0.0,0.0,-13.57,-14.23,-14.15,0,*68
1546322838.62,26495,0.0,0.0,-13.59,-14.19,-14.19,0,*62
1546322839.85,26496,0.0,0.0,-13.59,-14.19,-14.19,0,*61
1546322841.08,26497,0.0,0.0,-13.59,-14.15,-14.15,0,*60
1546322842.29,26498,0.0,0.0,-13.59,-14.29,-14.19,0,*6C
1546322843.51,26499,0.0,0.0,-13.59,-14.33,-14.19,0,*66
1546322844.74,26500,0.0,0.0,-13.59,-14.15,-14.19,0,*63
1546322845.96,26501,0.0,0.0,-13.59,-14.15,-14.19,0,*62
1546322847.18,26502,0.0,0.0,-13.59,-14.19,-14.19,0,*6D
1546322848.44,26503,0.0,0.0,-13.57,-14.15,-14.11,0,*66
1546322849.66,26504,0.0,0.0,-13.59,-14.19,-14.15,0,*67
1546322850.88,26505,0.0,0.0,-13.59,-14.19,-14.19,0,*6A
1546322852.13,26506,0.0,0.0,-13.61,-14.19,-14.19,0,*62
1546322853.38,26507,0.0,0.0,-13.61,-14.19,-14.19,0,*63
1546322854.63,26508,0.0,0.0,-13.61,-14.19,-14.15,0,*60
1546322855.87,26509,0.0,0.0,-13.61,-14.19,-14.23,0,*64
1546322857.13,26510,0.0,0.0,-13.61,-14.15,-14.19,0,*69
1546322858.38,26511,0.0,0.0,-13.61,-14.15,-14.15,0,*64
1546322859.6,26512,0.0,0.0,-13.59,-14.19,-14.15,0,*60
1546322860.86,26513,0.0,0.0,-13.57,-14.15,-14.15,0,*63
1546322862.09,26514,0.0,0.0,-13.59,-14.19,-14.19,0,*6A
1546322863.31,26515,0.0,0.0,-13.59,-14.19,-14.19,0,*6B
1546322864.54,26516,0.0,0.0,-13.59,-14.15,-14.15,0,*68
1546322865.76,26517,0.0,0.0,-13.59,-14.19,-14.19,0,*69
1546322866.98,26518,0.0,0.0,-13.59,-14.19,-14.19,0,*66
1546322868.22,26519,0.0,0.0,-13.61,-14.29,-14.19,0,*6F
1546322869.45,26520,0.0,0.0,-13.59,-14.19,-14.19,0,*6D
1546322870.67,26521,0.0,0.0,-13.59,-14.19,-14.19,0,*6C
1546322871.89,26522,0.0,0.0,-13.59,-14.19,-14.15,0,*63
1546322873.12,26523,0.0,0.0,-13.59,-14.19,-14.19,0,*6E
1546322874.34,26524,0.0,0.0,-13.59,-14.19,-14.19,0,*69
1546322875.6,26525,0.0,0.0,-13.57,-14.15,-14.15,0,*66
1546322876.82,26526,0.0,0.0,-13.59,-14.19,-14.19,0,*6B
1546322878.04,26527,0.0,0.0,-13.59,-14.19,-14.19,0,*6A
1546322879.3,26528,0.0,0.0,-13.57,-14.15,-14.15,0,*6B
1546322880.52,26529,0.0,0.0,-13.59,-14.19,-14.19,0,*64
1546322881.74,26530,0.0,0.0,-13.59,-14.29,-14.29,0,*6C
1546322882.96,26531,0.0,0.0,-13.59,-14.29,-14.19,0,*6E
1546322884.19,26532,0.0,0.0,-13.59,-14.19,-14.15,0,*62
1546322885.41,26533,0.0,0.0,-13.59,-14.19,-14.19,0,*6F
1546322886.63,26534,0.0,0.0,-13.59,-14.19,-14.19,0,*68
1546322887.85,26535,0.0,0.0,-13.59,-14.19,-14.19,0,*69
1546322889.08,26536,0.0,0.0,-13.59,-14.19,-14.19,0,*6A
1546322890.3,26537,0.0,0.0,-13.59,-14.19,-14.19,0,*6B
1546322891.52,26538,0.0,0.0,-13.59,-14.19,-14.19,0,*64
1546322892.74,26539,0.0,0.0,-13.59,-14.19,-14.19,0,*65
1546322893.97,26540,0.0,0.0,-13.59,-14.19,-14.19,0,*6B
1546322895.22,26541,0.0,0.0,-13.57,-14.15,-14.11,0,*60
1546322896.45,26542,0.0,0.0,-13.59,-14.15,-14.15,0,*69
1546322897.68,26543,0.0,0.0,-13.59,-14.15,-14.15,0,*68
1546322898.9,26544,0.0,0.0,-13.59,-14.19,-14.15,0,*63
1546322900.13,26545,0.0,0.0,-13.59,-14.19,-14.15,0,*62
1546322901.35,26546,0.0,0.0,-13.59,-14.19,-14.19,0,*6D
1546322902.57,26547,0.0,0.0,-13.59,-14.19,-14.19,0,*6C
1546322903.83,26548,0.0,0.0,-13.57,-14.15,-14.15,0,*6D
1546322905.05,26549,0.0,0.0,-13.59,-14.19,-14.19,0,*62
1546322906.28,26550,0.0,0.0,-13.59,-14.19,-14.19,0,*6A
1546322907.5,26551,0.0,0.0,-13.59,-14.19,-14.19,0,*6B
1546322908.75,26552,0.0,0.0,-13.57,-14.11,-14.11,0,*66
1546322909.97,26553,0.0,0.0,-13.59,-14.19,-14.15,0,*65
1546322911.2,26554,0.0,0.0,-13.59,-14.19,-14.19,0,*6E
1546322912.42,26555,0.0,0.0,-13.59,-14.19,-14.15,0,*63
1546322913.65,26556,0.0,0.0,-13.59,-14.15,-14.19,0,*60
1546322914.87,26557,0.0,0.0,-13.59,-14.29,-14.29,0,*6D
1546322916.09,26558,0.0,0.0,-13.59,-14.19,-14.19,0,*62
1546322917.31,26559,0.0,0.0,-13.59,-14.19,-14.19,0,*63
1546322918.53,26560,0.0,0.0,-13.59,-14.19,-14.15,0,*65
1546322919.76,26561,0.0,0.0,-13.59,-14.19,-14.19,0,*68
1546322920.99,26562,0.0,0.0,-13.59,-14.15,-14.15,0,*6B
1546322922.21,26563,0.0,0.0,-13.59,-14.19,-14.15,0,*66
1546322923.44,26564,0.0,0.0,-13.59,-14.15,-14.15,0,*6D
1546322924.66,26565,0.0,0.0,-13.59,-14.15,-14.11,0,*68
1546322925.89,26566,0.0,0.0,-13.59,-14.15,-14.15,0,*6F
1546322927.15,26567,0.0,0.0,-13.57,-14.15,-14.11,0,*64
1546322928.4,26568,0.0,0.0,-13.57,-14.15,-14.15,0,*6F
1546322929.66,26569,0.0,0.0,-13.57,-14.15,-14.15,0,*6E
1546322930.88,26570,0.0,0.0,-13.59,-14.19,-14.19,0,*68
1546322932.11,26571,0.0,0.0,-13.59,-14.19,-14.19,0,*69
1546322933.37,26572,0.0,0.0,-13.57,-14.15,-14.15,0,*64
1546322934.59,26573,0.0,0.0,-13.59,-14.19,-14.19,0,*6B
1546322935.82,26574,0.0,0.0,-13.59,-14.15,-14.15,0,*6C
1546322937.08,26575,0.0,0.0,-13.57,-14.15,-14.15,0,*63